User: anonymous   Login
Location: Andrest
(43.3200°N, 0.0641°E)
Time: 16:14:34
(UTC+00:00)
Language:

CZ-2C R/B - Orbit

View from above orbital plane
View from above orbital plane
View from above satellite
View from above satellite

Ground track
Ground track

The orbit data is extracted from the following two-line orbital elements,

1 28480U 04046B   21059.00511189  .00000056  00000-0  36372-4 0  9994
2 28480  98.0573  79.8017 0141766 187.6722 202.5644 14.25742314846853
Epoch (UTC): 28 February 2021 00:07:21
Eccentricity: 0.0141766
inclination: 98.0573°
perigee height: 704 km
apogee height: 908 km
right ascension of ascending node: 79.8017°
argument of perigee: 187.6722°
revolutions per day: 14.25742314
mean anomaly at epoch: 202.5644°
orbit number at epoch: 84685

The dashed part of the orbit path shows where the satellite is in the earth's shadow,  

DLR